Showing default

GLOBALSTAR M002, 25164

Orbit data source: Space-Track

GLOBALSTAR M002, 25164 is a payload satellite owned by Globalstar (US) in LEO that was launched on Sat, 14 Feb 1998 UTC via a DELTA 7420-10C launch vehicle from the Air Force Eastern Test Range (AFETR). Payloads include a variety of satellites, spacecraft, and rockets equipped with specific instruments for various scientific and technological missions. These include communications satellites like Starlink; space stations such as the ISS; scientific satellites like the Hubble; Earth observation satellites from companies like Planet Labs, Umbra, and HawkEye 360; GPS; miniature CubeSats for education and research; and military/defense satellites.

Loading next visibility...
GLOBALSTAR M002 details
Identifier
25164, 1998-008C
Orbit
LEO
Last TLE update13 hours ago
Origin
Flag of USGlobalstar (US / GLOB)
ManufacturerSS/Loral
MissionNon-operational Commercial Communications
Bus & MotorLS-400, Unknown motor
Mass450 kg wet, 380 kg dry
Launch date (UTC)
1998-02-14 (27 years ago)
Launch vehicle
DELTA 7420-10C
Launch site
Air Force Eastern Test Range (AFETR)
Object type
Payload
Rocket body
Debris
Shape & HBRBox + 2 Pan, 12 m
Radar Cross Section5.587 m², Large (>1 m²)

Expand to show TLE details & history

TLE from 13 hours ago
0 GLOBALSTAR M002
1 25164U 98008C   24361.27581506 -.00000093  00000-0 -32522-3 0  9994
2 25164  52.0037 313.7505 0000917 177.6410 182.4414 11.61507097164040
Epoch: 2024-12-26T06:37Z
Definitive object data (Epoch: 2024-12-26T06:37:10.421Z)
Latitude-0.00004°
Longitude119.19951°
Altitude1,859.344 km
Speed6.958 km/s
True Right ascension20h 55m 00s
True Declination0° 00' 00"
Sunlit
Object was in daylight at TLE epoch
Visualization TLE readout
Latitude21.15184°
Longitude-79.6938°
Altitude1,857.647 km
Speed6.961 km/s
Apparent Right ascension07h 30m 19s
Apparent Declination-5° 03' 48"
Sunlit
Object is in full shadow
Visualization observer readout
Local Sidereal Time19:16:01
Azimuth353.785° N
Elevation-54.999°
Doppler factor1
Orbital elements
Apogee altitude1,859.07 km
Perigee altitude1,857.56 km
Semi-major axis8,236.452 km
Eccentricity0.0000917
Inclination52.0037°
RAAN313.7505°
Arg. of periapsis177.641°
True anomaly182.44095°
Mean anomaly182.4414°
Eccentric anomaly182.44118°
Mean motion2.90357 °/min
BSTAR-0.00032522
Orbital period123.99 mins
Loading maneuver chart data...
Loading historical data...
Loading historical data...
Loading historical data...
Loading historical data...
Loading historical data...
Loading historical data...
Loading historical data...

GLOBALSTAR M002 Visibility forecast

Observer location: undefined°, undefined

Span
Click to sort rows by Start time (UTC) header in descending order
Start Az.
Max El. time (UTC)
Max El. Az.
Max El.
End time (UTC)
End Az.
12 mins2024-12-26 21:10:17.099Z151.153° SSE2024-12-26 21:16:17.099Z116.122° SE16.762°2024-12-26 21:22:17.099Z81.122° E
19 mins2024-12-26 23:16:17.099Z211.74° SW2024-12-26 23:25:17.099Z132.143° SE42.771°2024-12-26 23:35:17.099Z55.578° ENE
19 mins2024-12-27 01:27:17.099Z263.465° W2024-12-27 01:36:17.099Z336.67° NNW39.622°2024-12-27 01:46:17.099Z53.664° ENE
19 mins2024-12-27 03:40:17.099Z298.626° NW2024-12-27 03:49:17.099Z6.799° NNE35.131°2024-12-27 03:59:17.099Z76.132° E
20 mins2024-12-27 05:52:17.099Z309.016° NW2024-12-27 06:01:17.099Z21.419° NNE43.694°2024-12-27 06:12:17.099Z117.547° SE
18 mins2024-12-27 08:03:17.099Z295.822° NW2024-12-27 08:11:17.099Z239.564° WSW34.038°2024-12-27 08:21:17.099Z168.426° S
|